Abram Stockman

Team SKS Sauerland NRW

Information
Nationality Belgium
Born31st July 1996 (25)
UCI 1 Wins
UCI Ranking 1975

202120202019201820172016201520142013

Tarteletto - Isorex (Continental) UCI Ranking: 1357 Wins: 1 Race days: 52 Distance: 8.434km
Date Pos GC Race CAT UCI
2019-06-23 23.06 28 Ster ZLM Toer 2.1Show more
2019-03-24 24.03 DNF GP de Denain 1.HCShow more
2019-03-20 20.03 20 Esplechin - GP Dewailly 1.12B
2019-03-17 17.03 47 Paris-Troyes 1.2Show more
2019-03-13 13.03 30 Wanzeel Koerse KP
2019-03-02 02.03 24 Villers le Temple 1.12B
2019-02-24 24.02 50 Tour of Antalya 2.2Show more
2019-03-31 31.03 28 Tour de Normandie 2.2Show more
2019-04-20 20.04 19 Tour du Finistère 1.13Show more
2019-06-30 30.06 40 CN Belgium RR CN
2019-06-02 02.06 31 - Tour de la Mirabelle 2.2Show more
2019-06-26 26.06 8 Wielertrofee Jong Maar 1.23Show more
2019-06-16 16.06 13 Midden Brabant 1.2Show more
2019-06-11 11.06 15 Kampioneschap Waasland 1.IC1
2019-06-09 09.06 5 Walhain 1.12B
2019-05-26 26.05 40 A Travers les Hauts 2.2Show more
2019-05-12 12.05 48 Alpes Isère Tour 2.2Show more
2019-05-04 04.05 9 PK West-Vlaanderen 1.12B
2019-04-14 14.04 4 Tour du Maroc 2.220Show more
2019-04-22 22.04 75 Tro-Bro Leon 1.1Show more
2019-07-14 14.07 42 GP Stad Sint-Niklaas 1.IC1
2019-04-27 27.04 39 Driebergenprijs 1.IC1
2019-07-22 22.07 56 GP Lanssens KP
2019-08-28 28.08 65 Druivenkoers Overijse 1.1Show more
2019-08-20 20.08 DNF Egmont Cycling Race 1.1Show more
2019-07-31 31.07 36 Tour de Wallonie 2.HC3Show more
2019-08-18 18.08 44 Polynormande 1.1Show more
2019-08-11 11.08 28 Tour de la Namur 2.IC
2019-07-11 11.07 9 Omloop Gemeente Melle KP
2019-07-31 31.07 15 Tour de Wallonie | Youth 2.HC
2019-03-31 31.03 12 Tour de Normandie | Youth 2.2
2019-04-14 14.04 22 Tour du Maroc | Points 2.2
2019-06-23 23.06 32 Ster ZLM Toer | Points 2.1
2019-03-31 31.03 36 Tour de Normandie | Points 2.2
2019-03-31 31.03 5 Tour de Normandie | Mountain 2.2
2019-04-14 14.04 1 Tour du Maroc | Mountain 2.2
2019-07-31 31.07 18 Tour de Wallonie | Sprint 2.HC
2019-04-14 14.04 11 - Tour du Maroc | Sprint 2.2
2019-03-31 31.03 14 Tour de Normandie | Sprint 2.2
2019-03-31 31.03 7 Tour de Normandie | Combination 2.2
2019-08-11 11.08 59 28 Tour de la Namur | 5th stage 2.IC
2019-08-10 10.08 54 29 Tour de la Namur | 4th stage 2.IC
2019-08-09 09.08 39 30 Tour de la Namur | 3rd stage 2.IC
2019-08-08 08.08 30 17 Tour de la Namur | 2nd stage 2.IC
2019-08-07 07.08 10 10 Tour de la Namur | 1st stage 2.IC
2019-07-31 31.07 35 36 Tour de Wallonie | 5th stage 2.HC
2019-07-30 30.07 45 39 Tour de Wallonie | 4th stage 2.HC
2019-07-29 29.07 50 43 Tour de Wallonie | 3rd stage 2.HC
2019-07-28 28.07 46 46 Tour de Wallonie | 2nd stage 2.HC
2019-07-27 27.07 43 8 Tour de Wallonie | 1st stage 2.HC
2019-06-23 23.06 26 28 Ster ZLM Toer | 4th stage 2.1
2019-06-22 22.06 35 30 Ster ZLM Toer | 3rd stage 2.1
2019-06-21 21.06 23 51 Ster ZLM Toer | 2nd stage 2.1
2019-06-20 20.06 72 64 Ster ZLM Toer | 1st stage 2.1
2019-06-19 19.06 74 74 Ster ZLM Toer | Prologue 2.1
2019-06-02 02.06 23 31 Tour de la Mirabelle | 4th stage 2.2
2019-06-01 01.06 35 35 Tour de la Mirabelle | 3rd stage 2.2
2019-05-31 31.05 75 72 Tour de la Mirabelle | 2nd stage 2.2
2019-05-31 31.05 56 56 Tour de la Mirabelle | 1st stage 2.2
2019-05-26 26.05 38 40 A Travers les Hauts | 3rd stage 2.2
2019-05-25 25.05 65 64 A Travers les Hauts | 2nd stage 2.2
2019-05-24 24.05 47 51 A Travers les Hauts | 1st stage 2.2
2019-05-12 12.05 42 48 Alpes Isère Tour | 4th stage 2.2
2019-05-11 11.05 54 61 Alpes Isère Tour | 3rd stage 2.2
2019-05-10 10.05 62 58 Alpes Isère Tour | 2nd stage 2.2
2019-05-09 09.05 43 43 Alpes Isère Tour | 1st stage 2.2
2019-04-14 14.04 38 4 Tour du Maroc | 10th stage 2.2
2019-04-13 13.04 22 4 Tour du Maroc | 9th stage 2.2
2019-04-12 12.04 20 4 Tour du Maroc | 8th stage 2.2
2019-04-11 11.04 21 4 Tour du Maroc | 7th stage 2.2
2019-04-10 10.04 22 5 Tour du Maroc | 6th stage 2.2
2019-04-09 09.04 21 5 Tour du Maroc | 5th stage 2.2
2019-04-08 08.04 42 5 Tour du Maroc | 4th stage 2.2
2019-04-07 07.04 3 5 Tour du Maroc | 3rd stage 2.21
2019-04-06 06.04 1 12 Tour du Maroc | 2nd stage 2.27
2019-04-05 05.04 21 21 Tour du Maroc | 1st stage 2.2
2019-03-31 31.03 48 28 Tour de Normandie | 7th stage 2.2
2019-03-30 30.03 31 28 Tour de Normandie | 6th stage 2.2
2019-03-29 29.03 75 35 Tour de Normandie | 5th stage 2.2
2019-03-28 28.03 52 36 Tour de Normandie | 4th stage 2.2
2019-03-27 27.03 61 39 Tour de Normandie | 3rd stage 2.2
2019-03-26 26.03 122 7 Tour de Normandie | 2nd stage 2.2
2019-03-25 25.03 52 4 Tour de Normandie | 1st stage 2.2
2019-02-24 24.02 26 50 Tour of Antalya | 4th stage 2.2
2019-02-23 23.02 51 52 Tour of Antalya | 3rd stage 2.2
2019-02-22 22.02 62 29 Tour of Antalya | 2nd stage 2.2
2019-02-21 21.02 29 30 Tour of Antalya | 1st stage 2.2